| time (UTC) | temp C | wind direction | speed KPH | gust KPH | rain 1hr cm | rain 24hr cm | rain mn cm | humidity % | barometer mb |
| 20260905172904 | 33 | 61 | 3.2 | 4.8 | 0.00 | 0.00 | 0.00 | 39 | 1015.9 |
| 20260905172403 | 32 | 205 | 1.6 | 4.8 | 0.00 | 0.00 | 0.00 | 40 | 1015.9 |
| 20260905171904 | 32 | 73 | 3.2 | 4.8 | 0.00 | 0.00 | 0.00 | 39 | 1015.9 |
| 20260905171403 | 33 | 218 | 1.6 | 4.8 | 0.00 | 0.00 | 0.00 | 40 | 1016.1 |
| 20260905170904 | 32 | 189 | 3.2 | 4.8 | 0.00 | 0.00 | 0.00 | 40 | 1016.0 |
| 20260905170403 | 32 | 234 | 1.6 | 4.8 | 0.00 | 0.00 | 0.00 | 43 | 1016.0 |
| 20260905165903 | 32 | 238 | 3.2 | 4.8 | 0.00 | 0.00 | 0.00 | 43 | 1016.1 |
| 20260905164903 | 31 | 132 | 0.0 | 4.8 | 0.00 | 0.00 | 0.00 | 45 | 1016.1 |
| 20260905164403 | 31 | 172 | 3.2 | 4.8 | 0.00 | 0.00 | 0.00 | 46 | 1016.2 |
| 20260905163903 | 31 | 215 | 1.6 | 4.8 | 0.00 | 0.00 | 0.00 | 46 | 1016.0 |
| 20260905163403 | 31 | 189 | 1.6 | 4.8 | 0.00 | 0.00 | 0.00 | 49 | 1016.0 |
| 20260905162903 | 31 | 95 | 3.2 | 4.8 | 0.00 | 0.00 | 0.00 | 49 | 1016.0 |
| 20260905162404 | 30 | 106 | 0.0 | 4.8 | 0.00 | 0.00 | 0.00 | 50 | 1016.1 |
| 20260905161904 | 30 | 94 | 1.6 | 4.8 | 0.00 | 0.00 | 0.00 | 49 | 1016.2 |
| 20260905161403 | 30 | 157 | 0.0 | 4.8 | 0.00 | 0.00 | 0.00 | 51 | 1016.0 |
| 20260905160403 | 30 | 87 | 1.6 | 4.8 | 0.00 | 0.00 | 0.00 | 52 | 1016.1 |
| 20260905155903 | 30 | 88 | 1.6 | 4.8 | 0.00 | 0.00 | 0.00 | 53 | 1016.1 |
| 20260905155404 | 29 | 158 | 1.6 | 4.8 | 0.00 | 0.00 | 0.00 | 53 | 1016.1 |
| 20260905154903 | 29 | 169 | 1.6 | 4.8 | 0.00 | 0.00 | 0.00 | 53 | 1016.1 |
| 20260905154403 | 29 | 96 | 1.6 | 4.8 | 0.00 | 0.00 | 0.00 | 55 | 1016.0 |
| 20260905153903 | 28 | 180 | 1.6 | 4.8 | 0.00 | 0.00 | 0.00 | 54 | 1016.1 |
| 20260905153403 | 28 | 128 | 0.0 | 4.8 | 0.00 | 0.00 | 0.00 | 56 | 1016.1 |
| 20260905152903 | 28 | 120 | 1.6 | 4.8 | 0.00 | 0.00 | 0.00 | 56 | 1016.1 |
| 20260905151903 | 28 | 189 | 1.6 | 4.8 | 0.00 | 0.00 | 0.00 | 57 | 1016.1 |
| 20260905151404 | 28 | 211 | 1.6 | 8.0 | 0.00 | 0.00 | 0.00 | 57 | 1016.0 |
| 20260905150903 | 27 | 129 | 1.6 | 8.0 | 0.00 | 0.00 | 0.00 | 58 | 1016.0 |
| 20260905145903 | 27 | 134 | 1.6 | 4.8 | 0.00 | 0.00 | 0.00 | 60 | 1015.9 |
| 20260905145404 | 27 | 150 | 1.6 | 4.8 | 0.00 | 0.00 | 0.00 | 60 | 1016.0 |
| 20260905144903 | 27 | 165 | 1.6 | 4.8 | 0.00 | 0.00 | 0.00 | 60 | 1015.9 |
| 20260905144404 | 27 | 154 | 1.6 | 4.8 | 0.00 | 0.00 | 0.00 | 61 | 1016.0 |
| 20260905143903 | 26 | 91 | 1.6 | 4.8 | 0.00 | 0.00 | 0.00 | 62 | 1016.1 |
| 20260905142904 | 26 | 105 | 1.6 | 4.8 | 0.00 | 0.00 | 0.00 | 63 | 1016.0 |
| 20260905142403 | 26 | 96 | 1.6 | 4.8 | 0.00 | 0.00 | 0.00 | 63 | 1015.9 |
| 20260905141903 | 26 | 83 | 1.6 | 4.8 | 0.00 | 0.00 | 0.00 | 64 | 1015.7 |
| 20260905141403 | 26 | 100 | 3.2 | 4.8 | 0.00 | 0.00 | 0.00 | 64 | 1015.6 |
| 20260905140403 | 25 | 88 | 1.6 | 4.8 | 0.00 | 0.00 | 0.00 | 66 | 1015.5 |
| 20260905135904 | 25 | 109 | 1.6 | 4.8 | 0.00 | 0.00 | 0.00 | 67 | 1015.4 |
| 20260905135404 | 25 | 125 | 0.0 | 3.2 | 0.00 | 0.00 | 0.00 | 68 | 1015.4 |
| 20260905134903 | 24 | 82 | 0.0 | 1.6 | 0.00 | 0.00 | 0.00 | 69 | 1015.4 |
| 20260905134403 | 23 | 82 | 0.0 | 1.6 | 0.00 | 0.00 | 0.00 | 70 | 1015.3 |
| 20260905133904 | 23 | 82 | 0.0 | 1.6 | 0.00 | 0.00 | 0.00 | 70 | 1015.2 |
| 20260905133404 | 23 | 76 | 0.0 | 4.8 | 0.00 | 0.00 | 0.00 | 70 | 1015.0 |
| 20260905131903 | 23 | 87 | 0.0 | 1.6 | 0.00 | 0.00 | 0.00 | 71 | 1014.7 |
| 20260905131404 | 23 | 92 | 0.0 | 1.6 | 0.00 | 0.00 | 0.00 | 71 | 1014.7 |
| 20260905130903 | 23 | 92 | 0.0 | 1.6 | 0.00 | 0.00 | 0.00 | 71 | 1014.6 |
| 20260905130403 | 23 | 92 | 0.0 | 0.0 | 0.00 | 0.00 | 0.00 | 71 | 1014.6 |
| 20260905124903 | 23 | 92 | 0.0 | 1.6 | 0.00 | 0.00 | 0.00 | 70 | 1014.7 |
| 20260905124403 | 23 | 92 | 0.0 | 0.0 | 0.00 | 0.00 | 0.00 | 69 | 1014.7 |
| 20260905123903 | 23 | 92 | 0.0 | 1.6 | 0.00 | 0.00 | 0.00 | 69 | 1014.6 |
| 20260905123403 | 23 | 92 | 0.0 | 1.6 | 0.00 | 0.00 | 0.00 | 69 | 1014.6 |
| 20260905122904 | 23 | 92 | 0.0 | 1.6 | 0.00 | 0.00 | 0.00 | 69 | 1014.6 |
| 20260905122404 | 23 | 92 | 0.0 | 3.2 | 0.00 | 0.00 | 0.00 | 69 | 1014.4 |
| 20260905121904 | 23 | 92 | 0.0 | 3.2 | 0.00 | 0.00 | 0.00 | 69 | 1014.4 |
| 20260905121403 | 23 | 93 | 0.0 | 3.2 | 0.00 | 0.00 | 0.00 | 69 | 1014.4 |
| 20260905120903 | 23 | 77 | 0.0 | 3.2 | 0.00 | 0.00 | 0.00 | 69 | 1014.4 |
| 20260905120404 | 23 | 63 | 0.0 | 1.6 | 0.00 | 0.00 | 0.00 | 69 | 1014.3 |
| 20260905115904 | 23 | 63 | 0.0 | 1.6 | 0.00 | 0.00 | 0.00 | 69 | 1014.3 |
| 20260905115404 | 24 | 63 | 0.0 | 1.6 | 0.00 | 0.00 | 0.00 | 69 | 1014.3 |
| 20260905114904 | 24 | 63 | 0.0 | 1.6 | 0.00 | 0.00 | 0.00 | 69 | 1014.3 |
| 20260905114403 | 24 | 63 | 0.0 | 1.6 | 0.00 | 0.00 | 0.00 | 68 | 1014.4 |
| 20260905113903 | 24 | 63 | 0.0 | 1.6 | 0.00 | 0.00 | 0.00 | 68 | 1014.5 |
| 20260905112903 | 24 | 63 | 0.0 | 1.6 | 0.00 | 0.00 | 0.00 | 69 | 1014.4 |
| 20260905112403 | 24 | 63 | 0.0 | 0.0 | 0.00 | 0.00 | 0.00 | 69 | 1014.4 |
| 20260905111903 | 24 | 63 | 0.0 | 0.0 | 0.00 | 0.00 | 0.00 | 69 | 1014.4 |
| 20260905111404 | 24 | 63 | 0.0 | 0.0 | 0.00 | 0.00 | 0.00 | 68 | 1014.4 |
| 20260905110904 | 24 | 63 | 0.0 | 0.0 | 0.00 | 0.00 | 0.00 | 68 | 1014.3 |
| 20260905110403 | 25 | 63 | 0.0 | 0.0 | 0.00 | 0.00 | 0.00 | 67 | 1014.3 |
| 20260905105903 | 25 | 63 | 0.0 | 0.0 | 0.00 | 0.00 | 0.00 | 67 | 1014.3 |
| 20260905104404 | 25 | 63 | 0.0 | 1.6 | 0.00 | 0.00 | 0.00 | 66 | 1014.3 |
| 20260905103903 | 25 | 63 | 0.0 | 1.6 | 0.00 | 0.00 | 0.00 | 66 | 1014.2 |
| 20260905103403 | 25 | 63 | 0.0 | 1.6 | 0.00 | 0.00 | 0.00 | 67 | 1014.3 |
| 20260905102904 | 25 | 63 | 0.0 | 3.2 | 0.00 | 0.00 | 0.00 | 66 | 1014.3 |
| 20260905102403 | 25 | 63 | 0.0 | 3.2 | 0.00 | 0.00 | 0.00 | 66 | 1014.3 |
| 20260905101903 | 25 | 78 | 0.0 | 3.2 | 0.00 | 0.00 | 0.00 | 66 | 1014.3 |
| 20260905101404 | 25 | 88 | 0.0 | 3.2 | 0.00 | 0.00 | 0.00 | 66 | 1014.3 |
| 20260905100904 | 25 | 86 | 0.0 | 3.2 | 0.00 | 0.00 | 0.00 | 66 | 1014.3 |
| 20260905100403 | 25 | 87 | 1.6 | 3.2 | 0.00 | 0.00 | 0.00 | 66 | 1014.3 |
| 20260905095403 | 25 | 76 | 0.0 | 1.6 | 0.00 | 0.00 | 0.00 | 66 | 1014.3 |
| 20260905094903 | 25 | 76 | 0.0 | 1.6 | 0.00 | 0.00 | 0.00 | 65 | 1014.3 |
| 20260905094403 | 25 | 76 | 0.0 | 3.2 | 0.00 | 0.00 | 0.00 | 67 | 1014.3 |
| 20260905093903 | 25 | 76 | 0.0 | 3.2 | 0.00 | 0.00 | 0.00 | 66 | 1014.3 |
| 20260905093404 | 25 | 85 | 0.0 | 3.2 | 0.00 | 0.00 | 0.00 | 65 | 1014.3 |
| 20260905092904 | 25 | 62 | 0.0 | 1.6 | 0.00 | 0.00 | 0.00 | 65 | 1014.3 |
| 20260905092404 | 25 | 62 | 0.0 | 1.6 | 0.00 | 0.00 | 0.00 | 66 | 1014.3 |
| 20260905091904 | 25 | 62 | 0.0 | 1.6 | 0.00 | 0.00 | 0.00 | 66 | 1014.4 |
| 20260905091403 | 25 | 62 | 0.0 | 1.6 | 0.00 | 0.00 | 0.00 | 65 | 1014.3 |
| 20260905090904 | 25 | 62 | 0.0 | 1.6 | 0.00 | 0.00 | 0.00 | 65 | 1014.4 |
| 20260905090404 | 25 | 62 | 0.0 | 1.6 | 0.00 | 0.00 | 0.00 | 64 | 1014.4 |
| 20260905085404 | 26 | 62 | 0.0 | 1.6 | 0.00 | 0.00 | 0.00 | 64 | 1014.4 |
| 20260905084903 | 26 | 62 | 0.0 | 1.6 | 0.00 | 0.00 | 0.00 | 65 | 1014.3 |
| 20260905084404 | 26 | 62 | 0.0 | 1.6 | 0.00 | 0.00 | 0.00 | 63 | 1014.3 |
| 20260905083903 | 26 | 62 | 0.0 | 1.6 | 0.00 | 0.00 | 0.00 | 63 | 1014.4 |
| 20260905083403 | 26 | 62 | 0.0 | 1.6 | 0.00 | 0.00 | 0.00 | 63 | 1014.4 |
| 20260905082904 | 26 | 62 | 0.0 | 1.6 | 0.00 | 0.00 | 0.00 | 63 | 1014.4 |
| 20260905081903 | 26 | 62 | 0.0 | 0.0 | 0.00 | 0.00 | 0.00 | 63 | 1014.6 |
| 20260905080903 | 26 | 62 | 0.0 | 1.6 | 0.00 | 0.00 | 0.00 | 61 | 1014.7 |
| 20260905080404 | 26 | 62 | 0.0 | 1.6 | 0.00 | 0.00 | 0.00 | 61 | 1014.7 |
| 20260905075904 | 26 | 62 | 0.0 | 0.0 | 0.00 | 0.00 | 0.00 | 62 | 1014.7 |
| 20260905075403 | 26 | 62 | 0.0 | 0.0 | 0.00 | 0.00 | 0.00 | 61 | 1014.7 |
| 20260905074903 | 27 | 62 | 0.0 | 0.0 | 0.00 | 0.00 | 0.00 | 60 | 1014.7 |
| 20260905074404 | 27 | 62 | 0.0 | 0.0 | 0.00 | 0.00 | 0.00 | 59 | 1014.7 |
| 20260905073904 | 27 | 62 | 0.0 | 0.0 | 0.00 | 0.00 | 0.00 | 59 | 1014.7 |
| 20260905073404 | 27 | 62 | 0.0 | 0.0 | 0.00 | 0.00 | 0.00 | 59 | 1014.6 |
| 20260905072903 | 27 | 62 | 0.0 | 1.6 | 0.00 | 0.00 | 0.00 | 58 | 1014.6 |
| 20260905072403 | 27 | 62 | 0.0 | 1.6 | 0.00 | 0.00 | 0.00 | 58 | 1014.6 |
| 20260905071903 | 27 | 62 | 0.0 | 0.0 | 0.00 | 0.00 | 0.00 | 58 | 1014.6 |
| 20260905071403 | 27 | 62 | 0.0 | 0.0 | 0.00 | 0.00 | 0.00 | 58 | 1014.4 |
| 20260905070903 | 27 | 62 | 0.0 | 0.0 | 0.00 | 0.00 | 0.00 | 58 | 1014.4 |
| 20260905070404 | 27 | 62 | 0.0 | 0.0 | 0.00 | 0.00 | 0.00 | 57 | 1014.4 |
| 20260905065903 | 27 | 62 | 0.0 | 1.6 | 0.00 | 0.00 | 0.00 | 57 | 1014.4 |
| 20260905065403 | 27 | 62 | 0.0 | 1.6 | 0.00 | 0.00 | 0.00 | 56 | 1014.5 |
| 20260905064403 | 28 | 62 | 0.0 | 3.2 | 0.00 | 0.00 | 0.00 | 55 | 1014.5 |
| 20260905063903 | 28 | 62 | 0.0 | 3.2 | 0.00 | 0.00 | 0.00 | 54 | 1014.3 |
| 20260905063403 | 28 | 80 | 1.6 | 3.2 | 0.00 | 0.00 | 0.00 | 55 | 1014.4 |
| 20260905062903 | 27 | 80 | 0.0 | 4.8 | 0.00 | 0.00 | 0.00 | 55 | 1014.4 |
| 20260905062404 | 27 | 24 | 1.6 | 4.8 | 0.00 | 0.00 | 0.00 | 56 | 1014.5 |
| 20260905061904 | 27 | 127 | 0.0 | 0.0 | 0.00 | 0.00 | 0.00 | 57 | 1014.4 |
| 20260905061404 | 27 | 127 | 0.0 | 0.0 | 0.00 | 0.00 | 0.00 | 57 | 1014.3 |
| 20260905060904 | 28 | 127 | 0.0 | 0.0 | 0.00 | 0.00 | 0.00 | 55 | 1014.3 |
| 20260905054903 | 28 | 206 | 0.0 | 3.2 | 0.00 | 0.00 | 0.00 | 52 | 1014.2 |
| 20260905054403 | 28 | 51 | 0.0 | 1.6 | 0.00 | 0.00 | 0.00 | 52 | 1014.1 |
| 20260905053903 | 28 | 51 | 0.0 | 1.6 | 0.00 | 0.00 | 0.00 | 51 | 1014.0 |
| 20260905053403 | 28 | 51 | 0.0 | 3.2 | 0.00 | 0.00 | 0.00 | 50 | 1014.0 |
| 20260905052903 | 29 | 51 | 0.0 | 3.2 | 0.00 | 0.00 | 0.00 | 49 | 1013.9 |
| 20260905052404 | 29 | 51 | 0.0 | 1.6 | 0.00 | 0.00 | 0.00 | 49 | 1013.9 |
| 20260905051904 | 29 | 51 | 0.0 | 1.6 | 0.00 | 0.00 | 0.00 | 49 | 1013.9 |
| 20260905051404 | 29 | 51 | 0.0 | 1.6 | 0.00 | 0.00 | 0.00 | 50 | 1013.8 |
| 20260905050903 | 29 | 51 | 0.0 | 3.2 | 0.00 | 0.00 | 0.00 | 50 | 1013.8 |
| 20260905045904 | 29 | 55 | 1.6 | 4.8 | 0.00 | 0.00 | 0.00 | 49 | 1013.8 |
| 20260905045403 | 29 | 81 | 1.6 | 3.2 | 0.00 | 0.00 | 0.00 | 49 | 1013.7 |
| 20260905044904 | 29 | 101 | 0.0 | 1.6 | 0.00 | 0.00 | 0.00 | 50 | 1013.8 |
| 20260905044403 | 29 | 101 | 0.0 | 1.6 | 0.00 | 0.00 | 0.00 | 50 | 1013.8 |
| 20260905043904 | 30 | 101 | 0.0 | 3.2 | 0.00 | 0.00 | 0.00 | 48 | 1013.7 |
| 20260905043404 | 30 | 104 | 1.6 | 3.2 | 0.00 | 0.00 | 0.00 | 47 | 1013.7 |
| 20260905042903 | 30 | 229 | 0.0 | 1.6 | 0.00 | 0.00 | 0.00 | 46 | 1013.8 |
| 20260905041904 | 31 | 229 | 0.0 | 0.0 | 0.00 | 0.03 | 0.00 | 42 | 1013.7 |
| 20260905041403 | 31 | 229 | 0.0 | 3.2 | 0.00 | 0.13 | 0.00 | 41 | 1013.7 |
| 20260905040904 | 31 | 229 | 0.0 | 4.8 | 0.00 | 0.18 | 0.00 | 40 | 1013.7 |
| 20260905040404 | 31 | 229 | 0.0 | 4.8 | 0.00 | 0.20 | 0.00 | 40 | 1013.6 |
| 20260905035904 | 31 | 253 | 1.6 | 4.8 | 0.00 | 0.20 | 0.00 | 39 | 1013.7 |
| 20260905035404 | 31 | 238 | 0.0 | 8.0 | 0.00 | 0.25 | 0.00 | 39 | 1013.7 |
| 20260905034904 | 31 | 246 | 1.6 | 8.0 | 0.00 | 0.25 | 0.00 | 39 | 1013.6 |
| 20260905034403 | 32 | 224 | 1.6 | 4.8 | 0.00 | 0.25 | 0.00 | 39 | 1013.6 |
| 20260905033903 | 32 | 243 | 1.6 | 4.8 | 0.00 | 0.25 | 0.00 | 38 | 1013.6 |
| 20260905032903 | 32 | 221 | 1.6 | 4.8 | 0.00 | 0.25 | 0.00 | 38 | 1013.5 |
| 20260905031903 | 32 | 209 | 1.6 | 4.8 | 0.00 | 0.25 | 0.00 | 37 | 1013.4 |
| 20260905031403 | 32 | 220 | 1.6 | 4.8 | 0.00 | 0.25 | 0.00 | 37 | 1013.2 |
| 20260905030903 | 32 | 207 | 0.0 | 3.2 | 0.00 | 0.25 | 0.00 | 37 | 1013.1 |
| 20260905030404 | 32 | 213 | 0.0 | 3.2 | 0.00 | 0.25 | 0.00 | 37 | 1013.1 |
| 20260905024903 | 32 | 211 | 1.6 | 3.2 | 0.00 | 0.25 | 0.00 | 36 | 1012.9 |
| 20260905024403 | 32 | 226 | 1.6 | 4.8 | 0.00 | 0.25 | 0.00 | 36 | 1012.8 |
| 20260905023904 | 32 | 223 | 1.6 | 4.8 | 0.00 | 0.25 | 0.00 | 36 | 1012.8 |
| 20260905022903 | 33 | 247 | 1.6 | 4.8 | 0.00 | 0.25 | 0.00 | 35 | 1012.5 |
| 20260905022403 | 33 | 229 | 1.6 | 9.7 | 0.00 | 0.25 | 0.00 | 35 | 1012.5 |
| 20260905021904 | 33 | 239 | 3.2 | 9.7 | 0.00 | 0.25 | 0.00 | 34 | 1012.5 |
| 20260905021403 | 33 | 247 | 1.6 | 4.8 | 0.00 | 0.25 | 0.00 | 33 | 1012.4 |
| 20260905020903 | 33 | 242 | 3.2 | 8.0 | 0.00 | 0.25 | 0.00 | 33 | 1012.4 |
| 20260905020403 | 33 | 240 | 3.2 | 8.0 | 0.00 | 0.25 | 0.00 | 33 | 1012.3 |
| 20260905015903 | 33 | 239 | 3.2 | 4.8 | 0.00 | 0.25 | 0.00 | 33 | 1012.2 |
| 20260905015404 | 33 | 236 | 1.6 | 4.8 | 0.00 | 0.25 | 0.00 | 33 | 1012.3 |
| 20260905014904 | 33 | 228 | 1.6 | 4.8 | 0.00 | 0.25 | 0.00 | 32 | 1012.2 |
| 20260905014404 | 33 | 241 | 1.6 | 4.8 | 0.00 | 0.25 | 0.00 | 31 | 1012.2 |
| 20260905013903 | 33 | 211 | 0.0 | 3.2 | 0.00 | 0.25 | 0.00 | 31 | 1012.3 |
| 20260905013403 | 33 | 228 | 0.0 | 9.7 | 0.00 | 0.25 | 0.00 | 31 | 1012.2 |
| 20260905012403 | 34 | 282 | 1.6 | 4.8 | 0.00 | 0.25 | 0.00 | 31 | 1012.2 |
| 20260905011904 | 34 | 297 | 3.2 | 9.7 | 0.00 | 0.25 | 0.00 | 31 | 1012.2 |
| 20260905011403 | 34 | 209 | 3.2 | 9.7 | 0.00 | 0.25 | 0.00 | 30 | 1012.1 |
| 20260905010903 | 34 | 277 | 1.6 | 11.3 | 0.00 | 0.25 | 0.00 | 30 | 1012.0 |
| 20260905010404 | 34 | 218 | 3.2 | 11.3 | 0.00 | 0.25 | 0.00 | 30 | 1012.1 |
| 20260905005903 | 34 | 18 | 1.6 | 9.7 | 0.00 | 0.25 | 0.00 | 30 | 1012.0 |
| 20260905005403 | 35 | 304 | 3.2 | 11.3 | 0.00 | 0.25 | 0.00 | 29 | 1012.0 |
| 20260905004903 | 35 | 13 | 3.2 | 11.3 | 0.00 | 0.25 | 0.00 | 29 | 1011.9 |
| 20260905004404 | 35 | 238 | 3.2 | 11.3 | 0.00 | 0.25 | 0.00 | 29 | 1012.0 |
| 20260905003904 | 35 | 196 | 3.2 | 4.8 | 0.00 | 0.25 | 0.00 | 28 | 1012.0 |
| 20260905002903 | 35 | 332 | 1.6 | 8.0 | 0.00 | 0.25 | 0.00 | 28 | 1012.0 |
| 20260905002403 | 35 | 135 | 1.6 | 9.7 | 0.00 | 0.25 | 0.00 | 28 | 1011.9 |
| 20260905001904 | 35 | 340 | 3.2 | 9.7 | 0.00 | 0.25 | 0.00 | 28 | 1011.8 |
| 20260905001403 | 35 | 266 | 1.6 | 11.3 | 0.00 | 0.25 | 0.00 | 27 | 1011.8 |
| 20260905000904 | 35 | 335 | 4.8 | 12.9 | 0.00 | 0.25 | 0.00 | 27 | 1011.8 |
| 20260905000404 | 36 | 251 | 3.2 | 12.9 | 0.00 | 0.25 | 0.00 | 26 | 1011.8 |
| 20260904235403 | 36 | 238 | 3.2 | 11.3 | 0.00 | 0.25 | 0.00 | 26 | 1011.6 |
| 20260904234403 | 36 | 237 | 3.2 | 9.7 | 0.00 | 0.25 | 0.00 | 28 | 1011.7 |
| 20260904233903 | 36 | 16 | 3.2 | 8.0 | 0.00 | 0.25 | 0.00 | 29 | 1011.8 |
| 20260904232903 | 36 | 45 | 1.6 | 11.3 | 0.00 | 0.25 | 0.00 | 29 | 1011.8 |
| 20260904231404 | 36 | 253 | 4.8 | 11.3 | 0.00 | 0.25 | 0.00 | 27 | 1012.0 |
| 20260904230903 | 36 | 65 | 1.6 | 11.3 | 0.00 | 0.25 | 0.00 | 31 | 1012.0 |
| 20260904230403 | 35 | 292 | 3.2 | 9.7 | 0.00 | 0.25 | 0.00 | 31 | 1012.0 |
| 20260904225904 | 35 | 213 | 1.6 | 11.3 | 0.00 | 0.25 | 0.00 | 30 | 1012.0 |
| 20260904224904 | 35 | 198 | 1.6 | 11.3 | 0.00 | 0.25 | 0.00 | 32 | 1012.2 |
| 20260904224404 | 36 | 163 | 3.2 | 11.3 | 0.00 | 0.25 | 0.00 | 30 | 1012.2 |
| 20260904223904 | 36 | 230 | 3.2 | 8.0 | 0.00 | 0.25 | 0.00 | 30 | 1012.2 |
| 20260904223404 | 36 | 67 | 0.0 | 14.5 | 0.00 | 0.25 | 0.00 | 30 | 1012.3 |
| 20260904222903 | 36 | 70 | 3.2 | 14.5 | 0.00 | 0.25 | 0.00 | 30 | 1012.3 |
| 20260904221904 | 36 | 213 | 3.2 | 14.5 | 0.00 | 0.25 | 0.00 | 30 | 1012.5 |
| 20260904221403 | 36 | 222 | 3.2 | 12.9 | 0.00 | 0.25 | 0.00 | 29 | 1012.4 |
| 20260904220904 | 37 | 343 | 1.6 | 9.7 | 0.00 | 0.25 | 0.00 | 29 | 1012.6 |
| 20260904220403 | 36 | 306 | 3.2 | 11.3 | 0.00 | 0.25 | 0.00 | 29 | 1012.5 |
| 20260904215904 | 37 | 353 | 4.8 | 11.3 | 0.00 | 0.25 | 0.00 | 29 | 1012.6 |
| 20260904214903 | 36 | 242 | 3.2 | 12.9 | 0.00 | 0.25 | 0.00 | 30 | 1012.7 |
| 20260904214403 | 36 | 318 | 3.2 | 14.5 | 0.00 | 0.25 | 0.00 | 29 | 1012.8 |
| 20260904213904 | 36 | 10 | 6.4 | 14.5 | 0.00 | 0.25 | 0.00 | 30 | 1012.8 |
| 20260904213404 | 36 | 39 | 3.2 | 12.9 | 0.00 | 0.25 | 0.00 | 29 | 1012.8 |
| 20260904212904 | 37 | 227 | 4.8 | 12.9 | 0.00 | 0.25 | 0.00 | 28 | 1012.9 |
| 20260904212403 | 36 | 101 | 3.2 | 9.7 | 0.00 | 0.25 | 0.00 | 28 | 1012.9 |
| 20260904211904 | 36 | 227 | 3.2 | 16.1 | 0.00 | 0.25 | 0.00 | 30 | 1013.0 |
| 20260904211403 | 36 | 254 | 4.8 | 16.1 | 0.00 | 0.25 | 0.00 | 28 | 1013.1 |
| 20260904210904 | 37 | 228 | 6.4 | 16.1 | 0.00 | 0.25 | 0.00 | 28 | 1013.1 |
| 20260904210403 | 36 | 227 | 4.8 | 12.9 | 0.00 | 0.25 | 0.00 | 30 | 1013.2 |
| 20260904205904 | 36 | 338 | 4.8 | 11.3 | 0.00 | 0.25 | 0.00 | 30 | 1013.2 |
| 20260904204403 | 35 | 225 | 1.6 | 9.7 | 0.00 | 0.25 | 0.00 | 32 | 1013.3 |
| 20260904203903 | 35 | 211 | 3.2 | 8.0 | 0.00 | 0.25 | 0.00 | 34 | 1013.4 |
| 20260904203403 | 36 | 200 | 4.8 | 9.7 | 0.00 | 0.25 | 0.00 | 32 | 1013.5 |
| 20260904202904 | 36 | 228 | 1.6 | 14.5 | 0.00 | 0.25 | 0.00 | 33 | 1013.6 |
| 20260904202404 | 36 | 299 | 4.8 | 14.5 | 0.00 | 0.25 | 0.00 | 34 | 1013.7 |
| 20260904201903 | 35 | 242 | 4.8 | 11.3 | 0.00 | 0.25 | 0.00 | 36 | 1013.7 |
| 20260904201404 | 36 | 40 | 3.2 | 12.9 | 0.00 | 0.25 | 0.00 | 34 | 1013.8 |
| 20260904200903 | 36 | 233 | 4.8 | 12.9 | 0.00 | 0.25 | 0.00 | 35 | 1013.9 |
| 20260904200404 | 35 | 234 | 6.4 | 12.9 | 0.00 | 0.25 | 0.00 | 37 | 1014.0 |
| 20260904195904 | 35 | 147 | 3.2 | 8.0 | 0.00 | 0.25 | 0.00 | 36 | 1014.1 |
| 20260904195404 | 35 | 30 | 3.2 | 8.0 | 0.00 | 0.25 | 0.00 | 38 | 1014.0 |
| 20260904194903 | 35 | 212 | 1.6 | 4.8 | 0.00 | 0.25 | 0.00 | 39 | 1014.1 |
| 20260904194403 | 34 | 105 | 1.6 | 4.8 | 0.00 | 0.25 | 0.00 | 39 | 1014.2 |
| 20260904193903 | 34 | 56 | 1.6 | 11.3 | 0.00 | 0.25 | 0.00 | 40 | 1014.3 |
| 20260904192904 | 34 | 86 | 1.6 | 9.7 | 0.00 | 0.25 | 0.00 | 40 | 1014.4 |
| 20260904192403 | 34 | 193 | 3.2 | 9.7 | 0.00 | 0.25 | 0.00 | 39 | 1014.6 |
| 20260904191903 | 34 | 250 | 1.6 | 11.3 | 0.00 | 0.25 | 0.00 | 41 | 1014.6 |
| 20260904191403 | 34 | 230 | 3.2 | 11.3 | 0.00 | 0.25 | 0.00 | 40 | 1014.6 |
| 20260904190903 | 34 | 219 | 3.2 | 9.7 | 0.00 | 0.25 | 0.00 | 39 | 1014.6 |
| 20260904190404 | 33 | 55 | 3.2 | 8.0 | 0.00 | 0.25 | 0.00 | 40 | 1014.7 |
| 20260904185904 | 33 | 48 | 3.2 | 8.0 | 0.00 | 0.25 | 0.00 | 40 | 1014.8 |
| 20260904185403 | 33 | 38 | 3.2 | 9.7 | 0.00 | 0.25 | 0.00 | 40 | 1014.8 |
| 20260904184903 | 33 | 122 | 3.2 | 9.7 | 0.00 | 0.25 | 0.00 | 40 | 1014.9 |
| 20260904184403 | 33 | 183 | 1.6 | 9.7 | 0.00 | 0.25 | 0.00 | 39 | 1014.9 |
| 20260904183903 | 33 | 92 | 3.2 | 9.7 | 0.00 | 0.25 | 0.00 | 40 | 1015.0 |
| 20260904182903 | 33 | 39 | 3.2 | 9.7 | 0.00 | 0.25 | 0.00 | 41 | 1015.1 |
| 20260904181403 | 32 | 153 | 1.6 | 4.8 | 0.00 | 0.25 | 0.00 | 43 | 1015.3 |
| 20260904180904 | 32 | 94 | 3.2 | 8.0 | 0.00 | 0.25 | 0.00 | 43 | 1015.4 |
| 20260904180403 | 32 | 148 | 1.6 | 8.0 | 0.00 | 0.25 | 0.00 | 44 | 1015.4 |
| 20260904175903 | 32 | 240 | 3.2 | 9.7 | 0.00 | 0.25 | 0.00 | 44 | 1015.4 |
| 20260904175403 | 32 | 188 | 3.2 | 9.7 | 0.00 | 0.25 | 0.00 | 46 | 1015.4 |
| 20260904174904 | 32 | 141 | 1.6 | 12.9 | 0.00 | 0.25 | 0.00 | 50 | 1015.5 |
| 20260904174403 | 32 | 159 | 4.8 | 12.9 | 0.00 | 0.25 | 0.00 | 47 | 1015.5 |
| 20260904173904 | 32 | 80 | 3.2 | 9.7 | 0.00 | 0.25 | 0.00 | 51 | 1015.7 |
| 20260904173403 | 31 | 94 | 3.2 | 11.3 | 0.00 | 0.25 | 0.00 | 50 | 1015.8 |